TGW451 WMKK-WSSS

Flight info

Callsign TGW451
Flight time 0h 36m
Altitude 27000
Route RUSBU1E RUSBU Y511 TOPOR A464 ARAMA DCT TEBUN TEBUN1A
Aircraft A320/M-SDE3FGHIRWY/LB1

Departure

Time 2026-05-01 13:53
Airport Kuala Lumpur International Airport (WMKK)

Arrival

Time 2026-05-01 14:29
Airport Singapore Changi Airport (WSSS)
Time Latitude Longitude Altitude Speed Heading
2026-05-01 13:07 2.74441 101.68858 42 ft 0 kts 146°
2026-05-01 13:35 2.74453 101.68850 41 ft 3 kts 143°
2026-05-01 13:36 2.74464 101.68842 40 ft 3 kts 132°
2026-05-01 13:36 2.74472 101.68823 42 ft 2 kts 57°
2026-05-01 13:36 2.74464 101.68810 40 ft 0 kts 56°
2026-05-01 13:41 2.74469 101.68818 41 ft 4 kts 56°
2026-05-01 13:41 2.74495 101.68856 42 ft 10 kts 56°
2026-05-01 13:41 2.74543 101.68927 42 ft 15 kts 57°
2026-05-01 13:42 2.74614 101.69033 42 ft 21 kts 56°
2026-05-01 13:42 2.74698 101.69158 42 ft 19 kts 56°
2026-05-01 13:42 2.74701 101.69208 42 ft 6 kts 132°
2026-05-01 13:42 2.74663 101.69235 42 ft 8 kts 145°
2026-05-01 13:43 2.74599 101.69278 43 ft 14 kts 145°
2026-05-01 13:43 2.74505 101.69342 45 ft 19 kts 146°
2026-05-01 13:43 2.74382 101.69425 48 ft 24 kts 146°
2026-05-01 13:43 2.74239 101.69521 51 ft 12 kts 145°
2026-05-01 13:44 2.74176 101.69520 49 ft 11 kts 238°
2026-05-01 13:44 2.74126 101.69431 45 ft 20 kts 235°
2026-05-01 13:44 2.74033 101.69293 42 ft 26 kts 236°
2026-05-01 13:44 2.73926 101.69135 42 ft 28 kts 236°
2026-05-01 13:45 2.73814 101.68968 42 ft 30 kts 236°
2026-05-01 13:45 2.73715 101.68821 42 ft 21 kts 236°
2026-05-01 13:45 2.73630 101.68696 42 ft 23 kts 236°
2026-05-01 13:45 2.73536 101.68556 42 ft 25 kts 237°
2026-05-01 13:46 2.73447 101.68424 42 ft 1 kts 235°
2026-05-01 13:46 2.73447 101.68423 42 ft 0 kts 235°
2026-05-01 13:47 2.73436 101.68407 41 ft 8 kts 236°
2026-05-01 13:47 2.73368 101.68391 40 ft 13 kts 154°
2026-05-01 13:47 2.73281 101.68450 40 ft 17 kts 146°
2026-05-01 13:47 2.73172 101.68523 40 ft 22 kts 145°
2026-05-01 13:48 2.73028 101.68620 40 ft 28 kts 146°
2026-05-01 13:48 2.72856 101.68736 40 ft 31 kts 146°
2026-05-01 13:48 2.72674 101.68859 40 ft 32 kts 146°
2026-05-01 13:48 2.72487 101.68985 40 ft 33 kts 145°
2026-05-01 13:49 2.72291 101.69116 40 ft 34 kts 146°
2026-05-01 13:49 2.72089 101.69252 40 ft 35 kts 146°
2026-05-01 13:49 2.71913 101.69370 40 ft 21 kts 146°
2026-05-01 13:49 2.71815 101.69381 38 ft 13 kts 239°
2026-05-01 13:50 2.71761 101.69301 39 ft 12 kts 238°
2026-05-01 13:50 2.71751 101.69280 39 ft 0 kts 251°
2026-05-01 13:51 2.71750 101.69252 39 ft 11 kts 281°
2026-05-01 13:51 2.71790 101.69175 39 ft 14 kts 301°
2026-05-01 13:51 2.71838 101.69085 37 ft 15 kts 315°
2026-05-01 13:51 2.71891 101.69047 39 ft 1 kts 325°
2026-05-01 13:52 2.72025 101.68957 39 ft 57 kts 327°
2026-05-01 13:52 2.72531 101.68617 38 ft 117 kts 326°
2026-05-01 13:52 2.73340 101.68074 36 ft 162 kts 327°
2026-05-01 13:52 2.74336 101.67442 478 ft 164 kts 329°
2026-05-01 13:53 2.75284 101.66819 1030 ft 165 kts 327°
2026-05-01 13:53 2.76345 101.64858 1918 ft 180 kts 269°
2026-05-01 13:53 2.76325 101.63523 2097 ft 203 kts 269°
2026-05-01 13:54 2.76315 101.62038 2314 ft 225 kts 270°
2026-05-01 13:54 2.76311 101.60399 2625 ft 245 kts 270°
2026-05-01 13:54 2.76149 101.58692 3235 ft 251 kts 250°
2026-05-01 13:54 2.75172 101.57250 3871 ft 254 kts 217°
2026-05-01 13:55 2.73558 101.56548 4456 ft 261 kts 185°
2026-05-01 13:55 2.71726 101.56737 4971 ft 272 kts 166°
2026-05-01 13:55 2.69853 101.57136 5729 ft 277 kts 166°
2026-05-01 13:55 2.67966 101.57489 6492 ft 281 kts 173°
2026-05-01 13:56 2.65997 101.57547 7226 ft 285 kts 178°
2026-05-01 13:56 2.63999 101.57582 7972 ft 287 kts 174°
2026-05-01 13:56 2.62030 101.57953 8693 ft 289 kts 160°
2026-05-01 13:56 2.60155 101.58646 9431 ft 291 kts 158°
2026-05-01 13:57 2.58245 101.59360 10117 ft 294 kts 158°
2026-05-01 13:57 2.56272 101.60094 10444 ft 312 kts 158°
2026-05-01 13:57 2.54187 101.60873 10570 ft 334 kts 157°
2026-05-01 13:57 2.52103 101.62006 10692 ft 351 kts 139°
2026-05-01 13:58 2.50508 101.63893 10993 ft 360 kts 119°
2026-05-01 13:58 2.49278 101.66088 11503 ft 364 kts 118°
2026-05-01 13:58 2.48048 101.68315 12082 ft 367 kts 118°
2026-05-01 13:58 2.46811 101.70567 12664 ft 369 kts 117°
2026-05-01 13:59 2.45580 101.72808 13217 ft 372 kts 117°
2026-05-01 13:59 2.44327 101.75089 13772 ft 375 kts 117°
2026-05-01 13:59 2.43057 101.77396 14259 ft 378 kts 117°
2026-05-01 13:59 2.41801 101.79676 14766 ft 381 kts 117°
2026-05-01 14:00 2.40511 101.82014 15259 ft 383 kts 117°
2026-05-01 14:00 2.39226 101.84341 15751 ft 386 kts 117°
2026-05-01 14:00 2.37919 101.86707 16250 ft 389 kts 117°
2026-05-01 14:00 2.36602 101.89095 16763 ft 392 kts 117°
2026-05-01 14:01 2.35293 101.91467 17254 ft 395 kts 117°
2026-05-01 14:01 2.33952 101.93895 17757 ft 398 kts 117°
2026-05-01 14:01 2.32604 101.96336 18262 ft 401 kts 117°
2026-05-01 14:01 2.31264 101.98755 18697 ft 404 kts 118°
2026-05-01 14:02 2.29895 102.01227 19124 ft 406 kts 117°
2026-05-01 14:02 2.28519 102.03718 19554 ft 409 kts 117°
2026-05-01 14:02 2.27156 102.06192 19978 ft 411 kts 117°
2026-05-01 14:02 2.25766 102.08711 20387 ft 414 kts 117°
2026-05-01 14:03 2.24368 102.11243 20788 ft 416 kts 117°
2026-05-01 14:03 2.22961 102.13788 21175 ft 419 kts 117°
2026-05-01 14:03 2.21556 102.16327 21558 ft 421 kts 118°
2026-05-01 14:03 2.20128 102.18904 21925 ft 423 kts 118°
2026-05-01 14:04 2.18701 102.21484 22283 ft 425 kts 118°
2026-05-01 14:04 2.17277 102.24058 22621 ft 428 kts 118°
2026-05-01 14:04 2.15829 102.26680 22855 ft 429 kts 118°
2026-05-01 14:04 2.14870 102.28416 22888 ft 429 kts 118°
2026-05-01 14:05 2.12952 102.31883 22902 ft 429 kts 118°
2026-05-01 14:05 2.11506 102.34494 22907 ft 429 kts 118°
2026-05-01 14:05 2.10054 102.37121 22920 ft 429 kts 118°
2026-05-01 14:05 2.08624 102.39711 22913 ft 433 kts 118°
2026-05-01 14:06 2.07151 102.42382 22912 ft 443 kts 118°
2026-05-01 14:06 2.05643 102.45112 22923 ft 451 kts 118°
2026-05-01 14:06 2.04100 102.47902 22927 ft 459 kts 118°
2026-05-01 14:06 2.02549 102.50673 22937 ft 465 kts 120°
2026-05-01 14:07 2.00673 102.53326 22943 ft 463 kts 126°
2026-05-01 14:07 1.98733 102.55896 22934 ft 461 kts 126°
2026-05-01 14:07 1.96824 102.58425 22936 ft 460 kts 126°
2026-05-01 14:08 1.93007 102.63492 22935 ft 450 kts 126°
2026-05-01 14:08 1.91104 102.66023 22936 ft 458 kts 126°
2026-05-01 14:08 1.89198 102.68559 22938 ft 462 kts 126°
2026-05-01 14:08 1.87249 102.71147 22930 ft 463 kts 126°
2026-05-01 14:09 1.85319 102.73710 22925 ft 469 kts 126°
2026-05-01 14:09 1.83330 102.76351 22936 ft 474 kts 126°
2026-05-01 14:09 1.81367 102.78956 22919 ft 456 kts 126°
2026-05-01 14:09 1.79500 102.81425 22935 ft 437 kts 126°
2026-05-01 14:10 1.77677 102.83836 22933 ft 432 kts 126°
2026-05-01 14:10 1.75888 102.86206 22926 ft 430 kts 126°
2026-05-01 14:10 1.74093 102.88615 22922 ft 429 kts 123°
2026-05-01 14:10 1.72582 102.91191 22926 ft 428 kts 117°
2026-05-01 14:11 1.71208 102.93793 22928 ft 428 kts 117°
2026-05-01 14:11 1.68406 102.99053 22795 ft 437 kts 117°
2026-05-01 14:11 1.66951 103.01776 22534 ft 446 kts 117°
2026-05-01 14:12 1.65482 103.04526 22281 ft 447 kts 117°
2026-05-01 14:12 1.63987 103.07244 22029 ft 446 kts 121°
2026-05-01 14:12 1.62144 103.09710 21784 ft 446 kts 131°
2026-05-01 14:12 1.59895 103.11827 21538 ft 446 kts 140°
2026-05-01 14:13 1.57295 103.13537 21295 ft 447 kts 150°
2026-05-01 14:13 1.55402 103.14451 21132 ft 447 kts 153°
2026-05-01 14:13 1.51672 103.16210 20810 ft 445 kts 153°
2026-05-01 14:13 1.48923 103.17543 20577 ft 443 kts 152°
2026-05-01 14:14 1.46269 103.19093 20337 ft 439 kts 141°
2026-05-01 14:14 1.44069 103.21191 20095 ft 436 kts 131°
2026-05-01 14:14 1.42019 103.23416 19871 ft 434 kts 131°
2026-05-01 14:14 1.39983 103.25654 19595 ft 431 kts 131°
2026-05-01 14:15 1.38009 103.27842 18883 ft 428 kts 130°
2026-05-01 14:15 1.36015 103.30057 18174 ft 425 kts 130°
2026-05-01 14:15 1.34036 103.32250 17428 ft 422 kts 131°
2026-05-01 14:15 1.32095 103.34397 16780 ft 417 kts 131°
2026-05-01 14:16 1.30142 103.36554 16141 ft 414 kts 131°
2026-05-01 14:16 1.28237 103.38656 15520 ft 411 kts 131°
2026-05-01 14:16 1.26318 103.40770 14909 ft 408 kts 131°
2026-05-01 14:16 1.24403 103.42879 14290 ft 406 kts 131°
2026-05-01 14:17 1.22528 103.44945 13655 ft 404 kts 131°
2026-05-01 14:17 1.20633 103.47031 12967 ft 402 kts 131°
2026-05-01 14:17 1.18780 103.49073 12306 ft 398 kts 131°
2026-05-01 14:17 1.16907 103.51138 11631 ft 395 kts 131°
2026-05-01 14:18 1.15084 103.53147 11009 ft 391 kts 131°
2026-05-01 14:18 1.13300 103.55115 10853 ft 373 kts 131°
2026-05-01 14:18 1.11600 103.56991 10742 ft 356 kts 131°
2026-05-01 14:18 1.10517 103.58186 10660 ft 345 kts 131°
2026-05-01 14:19 1.08430 103.60487 10506 ft 327 kts 132°
2026-05-01 14:19 1.06932 103.62139 10390 ft 315 kts 131°
2026-05-01 14:19 1.05475 103.63744 10276 ft 304 kts 132°
2026-05-01 14:19 1.04069 103.65293 10116 ft 296 kts 132°
2026-05-01 14:20 1.02718 103.66785 9988 ft 289 kts 132°
2026-05-01 14:20 1.00234 103.69962 9421 ft 293 kts 111°
2026-05-01 14:20 0.99877 103.71971 9011 ft 294 kts 87°
2026-05-01 14:21 1.00383 103.73942 8604 ft 296 kts 63°
2026-05-01 14:21 1.01540 103.75624 8194 ft 298 kts 54°
2026-05-01 14:21 1.02794 103.77278 7783 ft 299 kts 53°
2026-05-01 14:22 1.05329 103.80616 6952 ft 301 kts 53°
2026-05-01 14:22 1.06566 103.82249 6541 ft 293 kts 53°
2026-05-01 14:22 1.07776 103.83845 6141 ft 283 kts 53°
2026-05-01 14:22 1.08948 103.85392 5739 ft 273 kts 53°
2026-05-01 14:23 1.10114 103.86861 5247 ft 269 kts 45°
2026-05-01 14:23 1.11622 103.87916 4754 ft 266 kts 25°
2026-05-01 14:23 1.13307 103.88628 4394 ft 257 kts 23°
2026-05-01 14:23 1.14921 103.89310 4064 ft 247 kts 24°
2026-05-01 14:24 1.16461 103.89960 3748 ft 238 kts 24°
2026-05-01 14:24 1.17962 103.90594 3455 ft 229 kts 24°
2026-05-01 14:24 1.19403 103.91202 3167 ft 219 kts 24°
2026-05-01 14:24 1.20785 103.91786 2900 ft 217 kts 24°
2026-05-01 14:25 1.22154 103.92364 2643 ft 209 kts 24°
2026-05-01 14:25 1.23464 103.92917 2360 ft 198 kts 24°
2026-05-01 14:25 1.24701 103.93439 2110 ft 187 kts 24°
2026-05-01 14:25 1.25837 103.93919 1899 ft 164 kts 24°
2026-05-01 14:26 1.26834 103.94339 1690 ft 152 kts 24°
2026-05-01 14:26 1.28728 103.95140 1303 ft 145 kts 24°
2026-05-01 14:26 1.29649 103.95528 1117 ft 145 kts 24°
2026-05-01 14:27 1.30575 103.95919 940 ft 144 kts 24°
2026-05-01 14:27 1.31181 103.96175 821 ft 143 kts 23°
2026-05-01 14:27 1.32402 103.96688 616 ft 142 kts 22°
2026-05-01 14:28 1.33917 103.97329 255 ft 142 kts 21°
2026-05-01 14:28 1.34823 103.97714 107 ft 141 kts 22°
2026-05-01 14:28 1.35697 103.98081 32 ft 118 kts 24°
2026-05-01 14:28 1.36295 103.98334 32 ft 69 kts 22°
2026-05-01 14:29 1.36560 103.98448 32 ft 26 kts 25°
2026-05-01 14:29 1.36664 103.98531 33 ft 19 kts 43°
2026-05-01 14:30 1.36834 103.98743 33 ft 6 kts 66°
2026-05-01 14:30 1.36828 103.98796 33 ft 9 kts 106°
2026-05-01 14:30 1.36800 103.98859 33 ft 11 kts 115°
2026-05-01 14:31 1.36734 103.99020 33 ft 15 kts 112°
2026-05-01 14:31 1.36686 103.99109 31 ft 9 kts 150°
2026-05-01 14:31 1.36641 103.99112 33 ft 7 kts 166°
2026-05-01 14:31 1.36588 103.99124 33 ft 9 kts 172°
2026-05-01 14:32 1.36520 103.99132 33 ft 11 kts 174°
2026-05-01 14:32 1.36438 103.99142 32 ft 7 kts 175°
2026-05-01 14:32 1.36399 103.99133 33 ft 7 kts 210°
2026-05-01 14:32 1.36351 103.99109 33 ft 9 kts 200°
2026-05-01 14:33 1.36300 103.99090 31 ft 5 kts 203°
2026-05-01 14:33 1.36292 103.99054 33 ft 6 kts 288°
2026-05-01 14:33 1.36315 103.99016 31 ft 6 kts 305°
2026-05-01 14:33 1.36321 103.99004 33 ft 1 kts 293°
2026-05-01 14:34 1.36323 103.99000 33 ft 0 kts 293°
2026-05-01 14:34 1.36324 103.98998 33 ft 0 kts 293°